Address 0x50fb69ef11ca3a6af1754a25ae5bf8147911c3f9 2

Txn Hash Method
Block
From
To
Value [Txn Fee]
0xc0165750aae265a5439ee8691186ca1e69403a7713b195022fc560138baf6bbaApprove158050902022-01-12 17:40:1215 days 8 mins ago0x50fb69ef11ca3a6af1754a25ae5bf8147911c3f9OUT 0xab9d20c1cfb9e39b5d2c64b8f7af47eff8b5bb5b0 BNB0.00044816
0x025bb7d1fd73aefdeba72b0e5f0bbfcb401428d319b2ed90eaa5181765b6c14fBurn Worker149113302021-12-12 13:45:2546 days 4 hrs ago0x50fb69ef11ca3a6af1754a25ae5bf8147911c3f9OUT 0xeed8e34393acb37226f5db75e9ab712de18c73710.0008 BNB0.00072476
0xc2585aa2c69ce68b6443f26cfc40b5cba66c3ab0c104decfad5b036729a6e5580xfee8bf4c148822832021-12-11 13:33:0447 days 4 hrs ago0x50fb69ef11ca3a6af1754a25ae5bf8147911c3f9OUT 0xeed8e34393acb37226f5db75e9ab712de18c73710.0008 BNB0.0025061
0xdc51f1928837fe60ec8e12a50d40e90842ae22d50b5430d4b7643138ab9df8d0Claim Token Rewa...148822622021-12-11 13:32:0147 days 4 hrs ago0x50fb69ef11ca3a6af1754a25ae5bf8147911c3f9OUT 0xeed8e34393acb37226f5db75e9ab712de18c73710.0008 BNB0.00067154
0xf83fae642696dda576f50f919b57654244accac1c14ca03b047fd003968a28a20xfee8bf4c148584972021-12-10 17:43:3548 days 5 mins ago0x50fb69ef11ca3a6af1754a25ae5bf8147911c3f9OUT 0xeed8e34393acb37226f5db75e9ab712de18c73710.016 BNB0.03652101
0x2f33519c7a0ef7be9d6396142fa37fce023742ee10e72879280d27efb71a167a0x13f78a49147473892021-12-06 20:57:1651 days 20 hrs ago0x50fb69ef11ca3a6af1754a25ae5bf8147911c3f9OUT 0xeed8e34393acb37226f5db75e9ab712de18c73710.0008 BNB0.00216067
0x775325f1d3fcc5efe2816c3dccb2c5b68120bff5031f7b926c595187142aac5d0x5742a361147473662021-12-06 20:56:0751 days 20 hrs ago0x50fb69ef11ca3a6af1754a25ae5bf8147911c3f9OUT 0xeed8e34393acb37226f5db75e9ab712de18c73710.0144 BNB0.00574681
0x1a688d766d284420b72be72cb648ec3077ccc093371a413495ef6db93e6f10b60xfee8bf4c147473372021-12-06 20:54:4051 days 20 hrs ago0x50fb69ef11ca3a6af1754a25ae5bf8147911c3f9OUT 0xeed8e34393acb37226f5db75e9ab712de18c73710 BNB0.04134282
0x3ce765fedab98b55b36340f0c12ca84dae99044d534f2945466466bdcf3c8bbc0xb883a5e4147473222021-12-06 20:53:5551 days 20 hrs ago0x50fb69ef11ca3a6af1754a25ae5bf8147911c3f9OUT 0xeed8e34393acb37226f5db75e9ab712de18c73710.2 BNB0.0077101
0xf3fb4b28847e3a63efb678897eb4f77fd82ec25465afec72abbc6c0008e29dd7Transfer147473182021-12-06 20:53:4351 days 20 hrs ago0xaa25aa7a19f9c426e07dee59b12f944f4d9f1dd3 IN 0x50fb69ef11ca3a6af1754a25ae5bf8147911c3f91 BNB0.000378
0xa05ccfa71779bdf75641832b73be9f41fa1748ba41165c915fceb3403301996e0xb883a5e4147463362021-12-06 20:04:3751 days 21 hrs ago0x50fb69ef11ca3a6af1754a25ae5bf8147911c3f9OUT 0xeed8e34393acb37226f5db75e9ab712de18c73710.2 BNB0.0077093
0x3222447af4225ba7a938feb5211f6ae1aefbf7e808153dfd1609cf6165b98f070x5742a361147415462021-12-06 16:05:0752 days 1 hr ago0x50fb69ef11ca3a6af1754a25ae5bf8147911c3f9OUT 0xeed8e34393acb37226f5db75e9ab712de18c73710.016 BNB0.0053557
0x9da149a9462aec9689fb3fc14ef6ebc87d68deb5210f7d4ed3a509f56ff8d3980xfee8bf4c147415112021-12-06 16:03:2252 days 1 hr ago0x50fb69ef11ca3a6af1754a25ae5bf8147911c3f9OUT 0xeed8e34393acb37226f5db75e9ab712de18c73710 BNB0.03651933
0x3dd407ed44e20cbc61bf0a3ea4fb6e5d5646d489147a6599ddd6eeba292f14e10xfee8bf4c147410262021-12-06 15:39:0752 days 2 hrs ago0x50fb69ef11ca3a6af1754a25ae5bf8147911c3f9OUT 0xeed8e34393acb37226f5db75e9ab712de18c73710 BNB0.04130048
0x07d8a8d466a6ec07bb76f41dc8f8cca1f1df220178e83c286bc18af6575b86f30x5742a361147410072021-12-06 15:38:1052 days 2 hrs ago0x50fb69ef11ca3a6af1754a25ae5bf8147911c3f9OUT 0xeed8e34393acb37226f5db75e9ab712de18c73710.0008 BNB0.00063472
0x742ccdae835e8fa251cbb0a48879387a3ad4286398fe8276bae454b8045853780xb883a5e4147331882021-12-06 9:07:1352 days 8 hrs ago0x50fb69ef11ca3a6af1754a25ae5bf8147911c3f9OUT 0xeed8e34393acb37226f5db75e9ab712de18c73710.2 BNB0.0104093
0xda00c293b3c005430447f5f0b9317667e11221d75e104c5d899a7be4bf3bad5e0xb883a5e4147331712021-12-06 9:06:2252 days 8 hrs ago0x50fb69ef11ca3a6af1754a25ae5bf8147911c3f9OUT 0xeed8e34393acb37226f5db75e9ab712de18c73710.2 BNB0.0101101
0xbdc0114ba081f4d1a9586054d44e27584e858965a35bcd86148fd2e83f557b300x5334e8b4144887362021-11-27 20:13:4360 days 21 hrs ago0x50fb69ef11ca3a6af1754a25ae5bf8147911c3f9OUT 0xeed8e34393acb37226f5db75e9ab712de18c73710.0004 BNB0.00153513
0xb4f5d55f8f846a5cb5e57dd731ade4e55172fe3dde0e6028bf420faf7c0785710x13f78a49143153682021-11-21 18:40:3066 days 23 hrs ago0x50fb69ef11ca3a6af1754a25ae5bf8147911c3f9OUT 0xeed8e34393acb37226f5db75e9ab712de18c73710 BNB0.00212572
0x0b29ea859c64d176cdc8352919008745c92cf7c5778f1b9ebc9ba1f767c1b08f0x13f78a49143148862021-11-21 18:16:2466 days 23 hrs ago0x50fb69ef11ca3a6af1754a25ae5bf8147911c3f9OUT 0xeed8e34393acb37226f5db75e9ab712de18c73710 BNB0.00199516
0x93f2fa1336c40116a8a82655d90068303274615347f8393a9c985046f873f97d0x13f78a49143148252021-11-21 18:13:2166 days 23 hrs ago0x50fb69ef11ca3a6af1754a25ae5bf8147911c3f9OUT 0xeed8e34393acb37226f5db75e9ab712de18c73710 BNB0.00257934
0x39f78bb7e35ef05c4202a411f3bd33b5afb01083b2f8eb6365269107b256db6d0x13f78a49143148042021-11-21 18:12:1866 days 23 hrs ago0x50fb69ef11ca3a6af1754a25ae5bf8147911c3f9OUT 0xeed8e34393acb37226f5db75e9ab712de18c73710 BNB0.00215322
0x6ca4d830ae28757e0f1281a40c08773e5215f04b6b51d23e39b7e6c4ae911d0d0x13f78a49143147412021-11-21 18:09:0966 days 23 hrs ago0x50fb69ef11ca3a6af1754a25ae5bf8147911c3f9OUT 0xeed8e34393acb37226f5db75e9ab712de18c73710 BNB0.00215381
0x22643e4c7b09991ba513835fb5f8a9777b8586e3de5241af282c4defc26466070x13f78a49143147252021-11-21 18:08:2166 days 23 hrs ago0x50fb69ef11ca3a6af1754a25ae5bf8147911c3f9OUT 0xeed8e34393acb37226f5db75e9ab712de18c73710 BNB0.00219946
0xf35b95b87a2119a54a3f26423c9c810099ae3b71160f59784b444e107d8eb6b80x13f78a49143147092021-11-21 18:07:3366 days 23 hrs ago0x50fb69ef11ca3a6af1754a25ae5bf8147911c3f9OUT 0xeed8e34393acb37226f5db75e9ab712de18c73710 BNB0.00257134
[ Download CSV Export 
Parent Txn Hash Block From To Value
Loading

Contract Name:
0 BNB

Compiler Version
0

Optimization Enabled:
0 BNB

Other Settings:
-NA-
Block Transaction Gas Used Reward
Age Block Fee Address BC Fee Address Voting Power Jailed Incoming
Block Uncle Number Difficulty Gas Used Reward
Loading